Погода в Диано-Марине

Италия     43°54′30″N   8°04′55″E
темп.,
°C
ветер,
м/с
пор.,
м/с
влажн.,
%
обл.,
%
осадки,
мм/ч
давл.,
гПа
погр.,
м
20 июня, вс
вс2023:00+18ссз119216 0.0 101619
02:00+17сз2185100 0.0 101519
05:00+18с2277100 0.0 101427
08:00+20всв2278100 0.0 1014120
11:00+24в2167100 0.0 1013513
14:00+27вюв4451100 0.0 10121051
17:00+25вюв336072 0.0 1011680
20:00+21юв228016 0.0 1011291
21 июня, пн
пн2123:00+17зсз219563 0.0 101121
02:00+16з219240 0.0 101126
05:00+17зсз118928 0.0 101026
08:00+20ююз12772 0.0 1010301
11:00+24ю34580 0.0 10101146
14:00+26ююв46520 0.0 10101183
17:00+24ююв44573 0.1 1010957
20:00+21ююв12730 0.1 1010104
22 июня, вт
вт2223:00+17зсз22911 0.0 101221
02:00+16зсз22911 0.0 101118
05:00+15сз22895 0.0 101120
08:00+19ююв11766 0.0 1012307
11:00+23ююв34602 0.0 10121260
14:00+25ююв45519 0.1 10121302
17:00+24ю455680 0.1 10121033
20:00+21ю227718 0.1 1013215
23 июня, ср
ср2323:00+17зсз229274 0.0 101419
02:00+16сз228514 0.0 101534
05:00+15ссз22795 0.0 101533
08:00+19ссв127683 0.0 1015231
11:00+24вюв3259100 0.0 10161026
14:00+25вюв335348 0.0 10161090
17:00+21ююз1274100 0.3 1016383
20:00+19ссз357067 0.4 1016152
24 июня, чт
чт2423:00+17сз345952 0.0 101751
02:00+19сз224797 0.0 101735
05:00+16сз32505 0.0 101740
08:00+20ссз12535 0.0 101798
11:00+24юв33420 0.0 10171086
14:00+25ююв45395 0.0 10161304
17:00+25ююз574325 0.0 10151037
20:00+21ююз23690 0.0 1015206